[[[{"header":{"parameterUnit":"kt","parameterCategory":2,"dx":1,"dy":1,"la1":30.253999710083008,"la2":30.299108505249023,"lo1":-89.0895004272461,"lo2":-89.04439544677734,"nx":28,"ny":28,"refTime":"2022-10-25T21:00:00:Z","depth":0,"parameterNumber":1,"parameterNumberName":"U-component_of_WINDS"},"data":[0.947,0.9437,0.9407,0.9356,0.9321,0.9282,0.9258,0.9225,0.9191,0.9141,0.9107,0.9074,0.9029,0.8983,0.8945,0.8931,0.8918,0.8929,0.8911,0.8888,0.8883,0.8878,0.8883,0.8926,0.8926,0.8938,0.8938,0.8938,0.9461,0.9426,0.939,0.9335,0.9304,0.9276,0.923,0.9207,0.9172,0.9129,0.9093,0.9047,0.9007,0.8956,0.8912,0.8897,0.8881,0.8888,0.8888,0.8881,0.8856,0.8862,0.8901,0.8901,0.8901,0.8901,0.8901,0.8901,0.9437,0.9418,0.9367,0.9326,0.929,0.9254,0.923,0.9189,0.9153,0.9103,0.9074,0.9033,0.8985,0.8916,0.8886,0.8854,0.8842,0.8839,0.8838,0.8838,0.8843,0.8832,0.8845,0.8845,0.8845,0.8845,0.8845,0,0.941,0.9386,0.9348,0.9302,0.9271,0.9232,0.9191,0.9175,0.9113,0.9086,0.9045,0.9015,0.8958,0.8916,0.8867,0.8835,0.8802,0.8795,0.8793,0.8807,0.8826,0.8816,0.8778,0.8794,0.8794,0.8793,0.8793,0.8793,0.9384,0.9364,0.9294,0.9272,0.9241,0.9205,0.9178,0.9124,0.9097,0.9039,0.9025,0.8981,0.8943,0.8881,0.8832,0.879,0.8773,0.8783,0.8766,0.8781,0.8773,0.8775,0.8773,0.8787,0.8788,0.8788,0.8789,0,0.9372,0.9321,0.928,0.9212,0.9194,0.9177,0.9118,0.9096,0.9058,0.9022,0.9011,0.895,0.891,0.8858,0.8801,0.8776,0.8749,0.8734,0.8766,0.876,0.8765,0.8765,0.8785,0.8785,0.874,0.8741,0.8741,0,0.9329,0.9305,0.923,0.9209,0.9181,0.9125,0.9099,0.9063,0.9017,0.8989,0.8943,0.8917,0.8854,0.8822,0.8784,0.8753,0.8741,0.872,0.871,0.8724,0.8727,0.8708,0.8706,0.8687,0.8687,0.8687,0.8687,0,0.9316,0.9246,0.9211,0.9187,0.911,0.9095,0.9063,0.9011,0.8984,0.894,0.8922,0.8876,0.8851,0.8816,0.8768,0.8758,0.8727,0.8704,0.8705,0.8707,0.87,0.8701,0.8733,0.8687,0.8687,0.8687,0.8687,0,0.9272,0.9228,0.9185,0.912,0.9104,0.9081,0.903,0.8998,0.8947,0.892,0.8886,0.8848,0.8814,0.8796,0.875,0.8751,0.873,0.8705,0.8705,0.8697,0.8677,0.8702,0.8738,0.874,0.8694,0.8694,0.8694,0,0.9272,0.9213,0.9164,0.9124,0.9089,0.9038,0.9012,0.8967,0.8929,0.8895,0.8853,0.8814,0.8789,0.8769,0.8754,0.8709,0.8707,0.8708,0.8661,0.866,0.8676,0.8708,0.8726,0.8736,0.8694,0.8694,0.8694,0,0.9264,0.9168,0.9164,0.9134,0.9063,0.9033,0.9003,0.8951,0.8931,0.8884,0.8858,0.8801,0.878,0.8747,0.871,0.8696,0.8707,0.8675,0.8672,0.8683,0.8688,0.8706,0.8708,0.8686,0.8685,0.8685,0.8693,0,0.9211,0.9173,0.916,0.9092,0.9061,0.9031,0.8973,0.8948,0.8915,0.8875,0.8834,0.8781,0.8728,0.8715,0.8682,0.8667,0.8661,0.8638,0.8614,0.8636,0.8637,0.8637,0.8617,0.8616,0.8615,0.8615,0,0,0.9223,0.9167,0.9112,0.9079,0.9048,0.8993,0.8968,0.8932,0.886,0.884,0.8827,0.8739,0.8696,0.8652,0.8654,0.8632,0.8624,0.8618,0.8626,0.8627,0.8628,0.8631,0.8632,0.8613,0.8613,0.8613,0.8612,0,0.919,0.9147,0.9121,0.9081,0.902,0.8977,0.8972,0.89,0.8873,0.8831,0.8786,0.8754,0.8683,0.8644,0.8615,0.8623,0.859,0.8611,0.8635,0.8619,0.8622,0.8624,0.8627,0.8629,0.861,0.861,0.861,0,0.9172,0.9119,0.91,0.9027,0.8985,0.895,0.8911,0.8875,0.8848,0.8788,0.8747,0.8709,0.8651,0.8616,0.8598,0.8585,0.8562,0.8558,0.8562,0.8558,0.854,0.8543,0.8546,0.8508,0.8508,0.8507,0,0,0.9152,0.9116,0.9041,0.9015,0.8992,0.8928,0.8903,0.8866,0.8814,0.8794,0.8744,0.8695,0.8654,0.8628,0.8585,0.8555,0.8539,0.8548,0.8552,0.8556,0.8555,0.8538,0.8542,0.8507,0.8507,0.8507,0,0,0.9142,0.9054,0.9029,0.8991,0.8944,0.8867,0.8854,0.8822,0.8778,0.8774,0.8711,0.8695,0.8661,0.8625,0.8626,0.8576,0.8554,0.8552,0.86,0.8605,0.861,0.8619,0.8578,0,0,0,0,0,0.9077,0.9065,0.9043,0.9028,0.8933,0.888,0.8867,0.8814,0.88,0.8791,0.8745,0.871,0.8613,0.8613,0.8599,0.8597,0.8502,0.8502,0.8503,0.8558,0.8564,0.8569,0,0,0,0,0,0,0.9071,0.9052,0.9043,0.8967,0.8946,0.888,0.8844,0.8829,0.88,0.8794,0.872,0.8708,0.8662,0.8616,0.8604,0.8604,0.8582,0.8502,0.8503,0.8503,0.856,0.8565,0.857,0,0,0,0,0,0.9065,0.905,0.8912,0.8967,0.8948,0.8875,0.8844,0.8831,0.8808,0.8734,0.872,0.877,0.8663,0.8649,0.8609,0.8611,0.8589,0.8585,0.8502,0.8503,0.8504,0.8563,0,0,0,0,0,0,0.9061,0.9038,0.8907,0.8899,0.8967,0.8878,0.8862,0.8834,0.8748,0.8735,0.8781,0.8777,0.8664,0.8653,0.8643,0.8616,0.8596,0.8592,0.8589,0.8503,0.8503,0.8504,0,0,0,0,0,0,0.9046,0.9032,0.8903,0.8906,0.8898,0.888,0.8866,0.8823,0.8748,0.8799,0.8794,0.878,0.8679,0.8656,0.8648,0.8583,0.8601,0.8597,0.8594,0.8592,0.8503,0.8504,0,0,0,0,0,0,0.9039,0.9027,0.8908,0.8902,0.8895,0.8804,0.8842,0.8748,0.8751,0.8804,0.8749,0.8749,0.8683,0.8674,0.8651,0.8591,0.8585,0.8601,0.8598,0.8596,0.8595,0,0,0,0,0,0,0,0.9034,0.9126,0.8953,0.8898,0.8892,0.8828,0.8826,0.8824,0.8751,0.875,0.875,0.8749,0.8624,0.862,0.8615,0.8597,0,0,0.8601,0.8599,0,0,0,0,0,0,0,0,0.913,0.9127,0.8953,0.8951,0.8949,0.8828,0.8826,0.8824,0.875,0.875,0.875,0.8749,0.8623,0.8619,0.8616,0,0,0,0,0,0,0,0,0,0,0,0,0,0,0,0.8952,0.8951,0,0.8827,0.8826,0.8825,0.875,0.875,0.875,0.8749,0.8622,0.8619,0.8616,0,0,0,0,0,0,0,0,0,0,0,0,0,0,0,0,0,0,0,0,0,0,0,0,0,0,0,0,0,0,0,0,0,0,0,0,0,0,0,0,0,0,0,0,0,0,0,0,0,0,0,0,0,0,0,0,0,0,0,0,0,0,0,0,0,0,0,0,0]}],[{"header":{"parameterUnit":"kt","parameterCategory":2,"dx":1,"dy":1,"la1":30.253999710083008,"la2":30.299108505249023,"lo1":-89.0895004272461,"lo2":-89.04439544677734,"nx":28,"ny":28,"refTime":"2022-10-25T21:00:00:Z","depth":0,"parameterNumber":2,"parameterNumberName":"V-component_of_WINDS"},"data":[-8.1669,-8.1886,-8.1925,-8.2189,-8.2269,-8.2455,-8.2533,-8.2638,-8.273,-8.2954,-8.3088,-8.3146,-8.3249,-8.3416,-8.3561,-8.3582,-8.364,-8.3691,-8.3707,-8.3452,-8.3418,-8.3387,-8.3339,-8.3703,-8.3704,-8.3965,-8.3968,-8.397,-8.1482,-8.1564,-8.1715,-8.1887,-8.2017,-8.1993,-8.2126,-8.2235,-8.24,-8.2515,-8.2649,-8.2847,-8.3006,-8.3094,-8.3252,-8.3351,-8.3346,-8.3391,-8.3383,-8.34,-8.3129,-8.3078,-8.3393,-8.3393,-8.3393,-8.3392,-8.3392,-8.3392,-8.1151,-8.128,-8.1407,-8.1571,-8.1668,-8.1782,-8.1909,-8.1978,-8.2124,-8.2297,-8.2311,-8.2497,-8.2615,-8.2822,-8.2899,-8.3043,-8.2999,-8.3058,-8.3073,-8.3086,-8.3098,-8.2716,-8.3071,-8.3071,-8.307,-8.3069,-8.3069,0,-8.0921,-8.0945,-8.1092,-8.1251,-8.1372,-8.1497,-8.1618,-8.1698,-8.1755,-8.1872,-8.2044,-8.2149,-8.2354,-8.2517,-8.2672,-8.274,-8.2721,-8.2722,-8.2763,-8.2759,-8.2737,-8.2751,-8.2307,-8.2711,-8.2708,-8.2706,-8.2704,-8.2703,-8.0589,-8.0734,-8.0884,-8.0982,-8.1057,-8.1214,-8.1314,-8.1354,-8.1458,-8.1609,-8.1718,-8.1883,-8.2017,-8.2283,-8.2355,-8.2507,-8.2498,-8.2649,-8.252,-8.2512,-8.25,-8.2491,-8.2505,-8.2672,-8.2676,-8.2679,-8.2682,0,-8.0399,-8.046,-8.0695,-8.0828,-8.0865,-8.1014,-8.1125,-8.1253,-8.1303,-8.1485,-8.153,-8.1608,-8.1774,-8.1823,-8.202,-8.204,-8.2281,-8.227,-8.2242,-8.2242,-8.2381,-8.2367,-8.2826,-8.2888,-8.2511,-8.2515,-8.2518,0,-8.0139,-8.0327,-8.0406,-8.0539,-8.0748,-8.0783,-8.0988,-8.1052,-8.1155,-8.1298,-8.1287,-8.1421,-8.1462,-8.1602,-8.1632,-8.1838,-8.1874,-8.1901,-8.1906,-8.1902,-8.1899,-8.1954,-8.1936,-8.1913,-8.191,-8.1908,-8.1907,0,-7.9834,-8.0095,-8.0312,-8.038,-8.0538,-8.0638,-8.0708,-8.0822,-8.0919,-8.1051,-8.1114,-8.1264,-8.1346,-8.1462,-8.1498,-8.141,-8.1751,-8.1636,-8.1778,-8.1777,-8.1849,-8.1844,-8.224,-8.1904,-8.1903,-8.1902,-8.1901,0,-7.9632,-7.9769,-8.0075,-8.0205,-8.0272,-8.0413,-8.0566,-8.0698,-8.0819,-8.0848,-8.0951,-8.0948,-8.1132,-8.1014,-8.1268,-8.1142,-8.1223,-8.1265,-8.1276,-8.1294,-8.1161,-8.1377,-8.1751,-8.1791,-8.1313,-8.1308,-8.1304,0,-7.9266,-7.959,-7.9622,-7.991,-8.0066,-8.0043,-8.0201,-8.0308,-8.0359,-8.0496,-8.0551,-8.0706,-8.0629,-8.0683,-8.0803,-8.0864,-8.1028,-8.0844,-8.1037,-8.1043,-8.1006,-8.1351,-8.1394,-8.1664,-8.1242,-8.1248,-8.1253,0,-7.8989,-7.918,-7.9229,-7.9308,-7.9458,-7.9587,-7.9768,-7.993,-8.002,-8.0141,-8.0292,-8.051,-8.0461,-8.0551,-8.0562,-8.0684,-8.0918,-8.0613,-8.0616,-8.0666,-8.1214,-8.1255,-8.13,-8.0898,-8.0906,-8.0912,-8.1204,0,-7.867,-7.8838,-7.8974,-7.9148,-7.9255,-7.9437,-7.9491,-7.9596,-7.9598,-7.9647,-7.9869,-7.9967,-8.0128,-8.0191,-8.0192,-8.0456,-8.0418,-8.0363,-8.025,-8.0476,-8.0573,-8.0613,-8.0101,-8.0098,-8.0096,-8.0094,0,0,-7.8304,-7.8546,-7.8574,-7.8751,-7.8844,-7.8816,-7.9006,-7.9091,-7.9264,-7.9328,-7.9266,-7.9587,-7.9668,-7.9931,-8.0006,-8.0071,-8.0122,-8.004,-8.0368,-8.0398,-8.0427,-8.053,-8.057,-8.0089,-8.0088,-8.0087,-8.0087,0,-7.8198,-7.8287,-7.8476,-7.8567,-7.8703,-7.8746,-7.8791,-7.8918,-7.8958,-7.9176,-7.9146,-7.9285,-7.9539,-7.9629,-7.9708,-8.0011,-7.9978,-8.0056,-8.0202,-8.0341,-8.0374,-8.0404,-8.0512,-8.0551,-8.008,-8.0081,-8.0081,0,-7.7934,-7.8031,-7.8127,-7.8336,-7.8424,-7.8583,-7.848,-7.8651,-7.8769,-7.8724,-7.894,-7.9,-7.9124,-7.9366,-7.9476,-7.9422,-7.9845,-7.9719,-7.9737,-7.9749,-7.9885,-7.9926,-7.9962,-7.9486,-7.9483,-7.9481,0,0,-7.7835,-7.7991,-7.8104,-7.8317,-7.8375,-7.844,-7.8529,-7.854,-7.8654,-7.8699,-7.8776,-7.8885,-7.9033,-7.913,-7.9271,-7.9529,-7.9557,-7.9644,-7.9672,-7.9695,-7.972,-7.9862,-7.9902,-7.9473,-7.9473,-7.9472,0,0,-7.7786,-7.7926,-7.7908,-7.8163,-7.8274,-7.8397,-7.8524,-7.8503,-7.8636,-7.862,-7.8642,-7.8672,-7.8899,-7.8958,-7.8839,-7.9231,-7.9119,-7.9148,-7.9184,-7.922,-7.9248,-7.9228,-7.8742,0,0,0,0,0,-7.7704,-7.7909,-7.7892,-7.7942,-7.8204,-7.8407,-7.844,-7.8465,-7.8386,-7.8487,-7.8547,-7.8506,-7.8898,-7.8793,-7.8841,-7.8973,-7.9363,-7.9382,-7.9401,-7.9508,-7.9545,-7.9576,0,0,0,0,0,0,-7.7724,-7.7786,-7.7886,-7.8017,-7.8076,-7.84,-7.8271,-7.8284,-7.8376,-7.8366,-7.8496,-7.8511,-7.8533,-7.877,-7.8813,-7.8938,-7.8728,-7.937,-7.9387,-7.9402,-7.9521,-7.9551,-7.9577,0,0,0,0,0,-7.774,-7.779,-7.8204,-7.8014,-7.8066,-7.8148,-7.8264,-7.8273,-7.8344,-7.8438,-7.8451,-7.8355,-7.8536,-7.8574,-7.8796,-7.8918,-7.8698,-7.8714,-7.9381,-7.9394,-7.9406,-7.9535,0,0,0,0,0,0,-7.7752,-7.7799,-7.8214,-7.8231,-7.7939,-7.813,-7.8161,-7.8264,-7.8411,-7.8426,-7.8296,-7.8286,-7.8541,-7.8569,-7.8598,-7.891,-7.8674,-7.869,-7.87,-7.9391,-7.9401,-7.941,0,0,0,0,0,0,-7.7772,-7.7813,-7.8223,-7.8126,-7.8131,-7.8114,-7.8142,-7.8332,-7.8413,-7.8261,-7.8257,-7.829,-7.8495,-7.8567,-7.8589,-7.8886,-7.8656,-7.8671,-7.8682,-7.8689,-7.9399,-7.9407,0,0,0,0,0,0,-7.779,-7.7825,-7.8122,-7.8126,-7.813,-7.8316,-7.8282,-7.8548,-7.8334,-7.8255,-7.8315,-7.8306,-7.8495,-7.8518,-7.8583,-7.8871,-7.8882,-7.8656,-7.8667,-7.8674,-7.8679,0,0,0,0,0,0,0,-7.7804,-7.7564,-7.8118,-7.8126,-7.813,-7.8383,-7.8387,-7.8392,-7.8332,-7.8324,-7.8317,-7.831,-7.8567,-7.8584,-7.8601,-7.8859,0,0,-7.8655,-7.8662,0,0,0,0,0,0,0,0,-7.755,-7.7561,-7.8118,-7.8121,-7.8125,-7.8383,-7.8387,-7.8391,-7.8331,-7.8324,-7.8318,-7.8313,-7.8572,-7.8586,-7.8599,0,0,0,0,0,0,0,0,0,0,0,0,0,0,0,-7.8118,-7.8121,0,-7.8384,-7.8387,-7.839,-7.833,-7.8325,-7.832,-7.8315,-7.8576,-7.8587,-7.8598,0,0,0,0,0,0,0,0,0,0,0,0,0,0,0,0,0,0,0,0,0,0,0,0,0,0,0,0,0,0,0,0,0,0,0,0,0,0,0,0,0,0,0,0,0,0,0,0,0,0,0,0,0,0,0,0,0,0,0,0,0,0,0,0,0,0,0,0,0]}]]]